When you browse on this site, cookies collect data to enhance your experience and personalize the content and advertising you see.
Visit our Privacy Policy to learn more. By continuing to use the site, you agree to this use of cookies and data.
EN

Hourly Weather Pashkino

Today, 20 September, Sunday

Time Temperature Precipitation Wind Pressure Humidity
00:00 +8°C° 1.5 mm 5 mps 728 mmHg 94%
01:00 +8°C° 1.5 mm 7 mps 728 mmHg 93%
02:00 +6°C° 1.7 mm 7 mps 728 mmHg 92%
03:00 +6°C° 1.7 mm 8 mps 727 mmHg 91%
04:00 +5°C° 0 mm 8 mps 727 mmHg 91%
05:00 +4°C° 0.3 mm 8 mps 727 mmHg 89%
06:00 +3°C° 0.3 mm 9 mps 727 mmHg 87%
07:00 +2°C° 0.3 mm 9 mps 727 mmHg 85%
08:00 +3°C° 0 mm 9 mps 728 mmHg 81%
09:00 +5°C° 0 mm 9 mps 729 mmHg 76%
10:00 +6°C° 0 mm 9 mps 729 mmHg 72%
11:00 +6°C° 0.1 mm 9 mps 729 mmHg 71%
12:00 +6°C° 0.1 mm 9 mps 730 mmHg 71%
13:00 +7°C° 0.1 mm 8 mps 730 mmHg 70%
14:00 +7°C° 0.1 mm 8 mps 731 mmHg 72%
15:00 +7°C° 0.1 mm 8 mps 731 mmHg 75%
16:00 +7°C° 0.1 mm 8 mps 732 mmHg 77%
17:00 +6°C° 0.1 mm 7 mps 732 mmHg 79%
18:00 +7°C° 0.1 mm 6 mps 732 mmHg 80%
19:00 +5°C° 0.1 mm 6 mps 733 mmHg 82%
20:00 +5°C° 0.1 mm 6 mps 733 mmHg 83%
21:00 +5°C° 0.1 mm 6 mps 734 mmHg 84%
22:00 +4°C° 0.1 mm 6 mps 735 mmHg 85%
23:00 +4°C° 0 mm 6 mps 735 mmHg 87%

Tomorrow, 21 September, Monday

Time Temperature Precipitation Wind Pressure Humidity
00:00 +3°C° 0 mm 6 mps 735 mmHg 88%
01:00 +3°C° 0 mm 5 mps 735 mmHg 89%
02:00 +3°C° 0 mm 6 mps 736 mmHg 88%
03:00 +3°C° 0 mm 6 mps 736 mmHg 86%
04:00 +3°C° 0 mm 6 mps 737 mmHg 85%
05:00 +3°C° 0 mm 6 mps 737 mmHg 85%
06:00 +3°C° 0 mm 6 mps 737 mmHg 86%
07:00 +3°C° 0 mm 5 mps 737 mmHg 86%
08:00 +4°C° 0.1 mm 6 mps 738 mmHg 83%
09:00 +5°C° 0.1 mm 6 mps 739 mmHg 79%
10:00 +5°C° 0.1 mm 7 mps 739 mmHg 76%
11:00 +5°C° 0.1 mm 7 mps 739 mmHg 74%
12:00 +6°C° 0.1 mm 7 mps 739 mmHg 72%
13:00 +6°C° 0.1 mm 7 mps 739 mmHg 70%
14:00 +6°C° 0.1 mm 7 mps 739 mmHg 73%
15:00 +6°C° 0.1 mm 7 mps 739 mmHg 75%
16:00 +5°C° 0.1 mm 6 mps 739 mmHg 77%
17:00 +5°C° 0.3 mm 6 mps 739 mmHg 81%
18:00 +5°C° 0.3 mm 6 mps 739 mmHg 85%
19:00 +4°C° 0.3 mm 6 mps 739 mmHg 90%
20:00 +4°C° 0.3 mm 6 mps 739 mmHg 90%
21:00 +5°C° 0.3 mm 6 mps 739 mmHg 90%
22:00 +5°C° 0.3 mm 6 mps 738 mmHg 90%
23:00 +5°C° 0.4 mm 6 mps 738 mmHg 91%

Day after tomorrow, 22 September, Tuesday

Time Temperature Precipitation Wind Pressure Humidity
00:00 +5°C° 0.4 mm 6 mps 738 mmHg 91%
01:00 +7°C° 0.4 mm 6 mps 738 mmHg 92%
02:00 +7°C° 0 mm 5 mps 738 mmHg 92%
03:00 +7°C° 0 mm 5 mps 739 mmHg 92%
04:00 +7°C° 0 mm 5 mps 739 mmHg 92%
05:00 +6°C° 0 mm 5 mps 739 mmHg 92%
06:00 +6°C° 0 mm 5 mps 740 mmHg 92%
07:00 +6°C° 0 mm 4 mps 740 mmHg 92%
08:00 +7°C° 0 mm 5 mps 740 mmHg 90%
09:00 +8°C° 0 mm 5 mps 740 mmHg 87%
10:00 +8°C° 0 mm 5 mps 741 mmHg 84%
11:00 +9°C° 0 mm 6 mps 741 mmHg 80%
12:00 +10°C° 0 mm 6 mps 740 mmHg 77%
13:00 +10°C° 0 mm 6 mps 740 mmHg 73%
14:00 +11°C° 0 mm 7 mps 740 mmHg 73%
15:00 +12°C° 0 mm 7 mps 740 mmHg 73%
16:00 +14°C° 0 mm 7 mps 739 mmHg 72%
17:00 +12°C° 0 mm 7 mps 739 mmHg 74%
18:00 +12°C° 0 mm 7 mps 739 mmHg 75%
19:00 +11°C° 0 mm 6 mps 738 mmHg 76%
20:00 +12°C° 0 mm 7 mps 738 mmHg 76%
21:00 +12°C° 0 mm 7 mps 738 mmHg 76%
22:00 +12°C° 0 mm 7 mps 738 mmHg 76%
23:00 +12°C° 0 mm 7 mps 737 mmHg 78%

23 September, Wednesday

Time Temperature Precipitation Wind Pressure Humidity
00:00 +12°C° 0 mm 7 mps 737 mmHg 80%
01:00 +12°C° 0 mm 7 mps 737 mmHg 82%
02:00 +11°C° 0 mm 7 mps 737 mmHg 83%
03:00 +11°C° 0 mm 7 mps 737 mmHg 84%
04:00 +11°C° 0 mm 7 mps 737 mmHg 85%
05:00 +10°C° 0 mm 7 mps 737 mmHg 86%
06:00 +10°C° 0 mm 6 mps 738 mmHg 87%
07:00 +10°C° 0 mm 6 mps 738 mmHg 89%
08:00 +11°C° 0 mm 7 mps 738 mmHg 81%
09:00 +11°C° 0 mm 8 mps 739 mmHg 74%
10:00 +12°C° 0 mm 9 mps 739 mmHg 66%
11:00 +13°C° 0 mm 9 mps 740 mmHg 62%
12:00 +13°C° 0 mm 8 mps 740 mmHg 59%
13:00 +13°C° 0 mm 8 mps 741 mmHg 55%
14:00 +13°C° 0 mm 8 mps 741 mmHg 53%
15:00 +14°C° 0 mm 7 mps 742 mmHg 52%
16:00 +12°C° 0 mm 7 mps 742 mmHg 50%
17:00 +11°C° 0 mm 6 mps 743 mmHg 56%
18:00 +11°C° 0 mm 4 mps 743 mmHg 61%
19:00 +9°C° 0 mm 3 mps 744 mmHg 66%
20:00 +9°C° 0 mm 3 mps 744 mmHg 69%
21:00 +8°C° 0 mm 3 mps 745 mmHg 72%
22:00 +7°C° 0 mm 2 mps 745 mmHg 74%
23:00 +7°C° 0 mm 2 mps 746 mmHg 77%

24 September, Thursday

Time Temperature Precipitation Wind Pressure Humidity
00:00 +8°C° 0 mm 1 mps 746 mmHg 79%
01:00 +7°C° 0 mm 1 mps 746 mmHg 81%
02:00 +7°C° 0 mm 1 mps 747 mmHg 83%
03:00 +7°C° 0 mm 1 mps 747 mmHg 84%
04:00 +5°C° 0 mm 0 mps 748 mmHg 86%
05:00 +5°C° 0 mm 0 mps 749 mmHg 86%
06:00 +5°C° 0 mm 0 mps 749 mmHg 85%
07:00 +5°C° 0 mm 0 mps 750 mmHg 85%
08:00 +7°C° 0 mm 0 mps 750 mmHg 78%
09:00 +9°C° 0 mm 0 mps 750 mmHg 71%
10:00 +10°C° 0 mm 0 mps 751 mmHg 64%
11:00 +11°C° 0 mm 0 mps 751 mmHg 60%
12:00 +12°C° 0 mm 0 mps 751 mmHg 56%
13:00 +14°C° 0 mm 0 mps 751 mmHg 52%
14:00 +14°C° 0 mm 0 mps 751 mmHg 51%
15:00 +14°C° 0 mm 0 mps 751 mmHg 50%
16:00 +14°C° 0 mm 0 mps 752 mmHg 49%
17:00 +13°C° 0 mm 0 mps 751 mmHg 54%
18:00 +12°C° 0 mm 1 mps 751 mmHg 59%
19:00 +11°C° 0 mm 1 mps 751 mmHg 65%
20:00 +11°C° 0 mm 1 mps 752 mmHg 66%
21:00 +10°C° 0 mm 1 mps 752 mmHg 68%
22:00 +9°C° 0 mm 0 mps 752 mmHg 70%
23:00 +9°C° 0 mm 1 mps 752 mmHg 70%

25 September, Friday

Time Temperature Precipitation Wind Pressure Humidity
00:00 +9°C° 0 mm 1 mps 752 mmHg 71%
01:00 +9°C° 0 mm 1 mps 752 mmHg 72%
02:00 +9°C° 0 mm 1 mps 752 mmHg 72%
03:00 +9°C° 0 mm 1 mps 753 mmHg 73%
04:00 +8°C° 0 mm 1 mps 753 mmHg 73%
05:00 +8°C° 0 mm 1 mps 753 mmHg 74%
06:00 +8°C° 0 mm 1 mps 753 mmHg 74%
07:00 +8°C° 0 mm 1 mps 753 mmHg 75%
08:00 +10°C° 0 mm 1 mps 753 mmHg 70%
09:00 +11°C° 0 mm 1 mps 753 mmHg 65%
10:00 +12°C° 0 mm 1 mps 754 mmHg 61%
11:00 +13°C° 0 mm 2 mps 754 mmHg 57%
12:00 +14°C° 0 mm 2 mps 754 mmHg 54%
13:00 +15°C° 0 mm 2 mps 754 mmHg 50%
14:00 +15°C° 0 mm 2 mps 754 mmHg 50%
15:00 +16°C° 0 mm 2 mps 754 mmHg 50%
16:00 +16°C° 0 mm 2 mps 754 mmHg 50%
17:00 +14°C° 0 mm 2 mps 753 mmHg 55%
18:00 +13°C° 0 mm 1 mps 753 mmHg 59%
19:00 +11°C° 0 mm 1 mps 753 mmHg 64%
20:00 +11°C° 0 mm 1 mps 753 mmHg 66%
21:00 +10°C° 0 mm 1 mps 753 mmHg 67%
22:00 +10°C° 0 mm 1 mps 753 mmHg 69%
23:00 +10°C° 0 mm 1 mps 754 mmHg 70%
Show more